Sierra Vista, AZ

9:22 AM MST on August 16, 2017 (GMT -0700)
Sierra Vista Municipal-Libby Army Air Field

Weather History for KFHU - October, 2013

Change the Weather History Date:

Monday, October 28, 2013

  Actual Average Record
Temperature  
Mean Temperature 63 °F -  
Max Temperature 71 °F 70 °F 86 °F (1987)
Min Temperature 55 °F 48 °F 36 °F (1989)
Degree Days  
Heating Degree Days 2    
Growing Degree Days 13 (Base 50)    
Moisture  
Dew Point 25 °F    
Average Humidity 24    
Maximum Humidity 33    
Minimum Humidity 12    
Precipitation  
Precipitation 0.00 in - - ()
Sea Level Pressure  
Sea Level Pressure 29.87 in    
Wind  
Wind Speed 8 mph (SW)    
Max Wind Speed 20 mph    
Max Gust Speed 28 mph    
Visibility 10 miles    
Events      
Averages and records for this station are not official NWS values.
T = Trace of Precipitation, MM = Missing Value Source: NWS Daily Summary

Daily Weather History Graph

Daily Weather History Graph

Search for Another Location

Airport or City:

Trip Planner

Search our weather history database for the weather conditions in past years. The results will help you decide how hot, cold, wet, or windy it might be!

Date:

Astronomy

Oct. 28, 2013 Rise Set
Actual Time 6:34 AM MST 5:35 PM MST
Civil Twilight 6:09 AM MST 6:00 PM MST
Nautical Twilight 5:40 AM MST 6:28 PM MST
Astronomical Twilight 5:12 AM MST 6:57 PM MST
Moon 12:52 AM MST (10/28) 1:59 PM MST (10/28)
Length of Visible Light 11h 50m
Length of Day
11h 00m
Waning Crescent, 33% of the Moon is Illuminated
Oct 28
Waning Crescent
Nov 3
New
Nov 9
First Quarter
Nov 17
Full
Nov 25
Last Quarter

Hourly Weather History & Observations

Time (MST) Temp. Dew Point Humidity Pressure Visibility Wind Dir Wind Speed Gust Speed Precip Events Conditions
12:55 AM 60.8 °F 30.2 °F 31% 29.82 in 10.0 mi West 3.5 mph - N/A   Clear
1:55 AM 60.8 °F 28.4 °F 29% 29.81 in 10.0 mi Calm Calm - N/A   Clear
2:55 AM 60.8 °F 26.6 °F 27% 29.81 in 10.0 mi South 6.9 mph - N/A   Clear
3:55 AM 57.2 °F 26.6 °F 31% 29.82 in 10.0 mi South 6.9 mph - N/A   Clear
4:55 AM 57.2 °F 28.4 °F 33% 29.84 in 10.0 mi SSW 4.6 mph - N/A   Clear
5:55 AM 57.2 °F 28.4 °F 33% 29.86 in 10.0 mi SE 4.6 mph - N/A   Partly Cloudy
6:55 AM 55.4 °F 26.6 °F 33% 29.88 in 10.0 mi South 4.6 mph - N/A   Scattered Clouds
7:55 AM 59.0 °F 26.6 °F 29% 30.03 in 10.0 mi SE 4.6 mph - N/A   Scattered Clouds
8:55 AM 64.4 °F 28.4 °F 26% 29.90 in 10.0 mi ESE 8.1 mph - N/A   Mostly Cloudy
9:55 AM 69.8 °F 24.8 °F 18% 29.88 in 10.0 mi WSW 16.1 mph 19.6 mph N/A   Mostly Cloudy
10:55 AM 71.6 °F 21.2 °F 15% 29.87 in 10.0 mi WSW 19.6 mph 27.6 mph N/A   Mostly Cloudy
11:55 AM 71.6 °F 19.4 °F 14% 29.87 in 10.0 mi WSW 9.2 mph 24.2 mph N/A   Mostly Cloudy
12:55 PM 71.6 °F 15.8 °F 12% 29.85 in 10.0 mi West 17.3 mph - N/A   Mostly Cloudy
1:55 PM 71.6 °F 17.6 °F 13% 29.83 in 10.0 mi WSW 11.5 mph 18.4 mph N/A   Mostly Cloudy
2:55 PM 71.6 °F 19.4 °F 14% 29.83 in 10.0 mi SSW 16.1 mph 24.2 mph N/A   Mostly Cloudy
3:55 PM 71.6 °F 21.2 °F 15% 29.83 in 10.0 mi WSW 17.3 mph 21.9 mph N/A   Mostly Cloudy
4:55 PM 69.8 °F 21.2 °F 16% 29.85 in 10.0 mi WSW 12.7 mph 19.6 mph N/A   Overcast
5:55 PM 66.2 °F 23.0 °F 19% 29.87 in 10.0 mi WSW 9.2 mph 23.0 mph N/A   Overcast
6:55 PM 66.2 °F 26.6 °F 23% 29.89 in 10.0 mi SSW 8.1 mph 16.1 mph N/A   Overcast
7:55 PM 64.4 °F 28.4 °F 26% 30.02 in 10.0 mi SW 8.1 mph - N/A   Overcast
8:55 PM 62.6 °F 30.2 °F 30% 29.88 in 10.0 mi West 11.5 mph - N/A   Overcast
9:55 PM 60.8 °F 30.2 °F 31% 29.88 in 10.0 mi Variable 5.8 mph - N/A   Mostly Cloudy
10:55 PM 60.8 °F 28.4 °F 29% 29.87 in 10.0 mi SW 10.4 mph - N/A   Mostly Cloudy
11:55 PM 60.8 °F 28.4 °F 29% 29.88 in 10.0 mi SW 10.4 mph 19.6 mph N/A   Mostly Cloudy